GFSFLT2_prec_precacc_180.txt.gz
Total_Precipitation_Accumulation
10.51 7.20 6.33 5.59 6.27 4.07 1.76 1.60 1.80 2.17 2.29 2.32 2.63 2.99 2.05 1.53 0.97 0.74 0.73 0.72 0.38 0.34 0.29 0.40 0.57 0.53 0.23 0.26 0.29 0.32 0.39 1.05
6.93 5.66 4.88 4.53 4.68 5.25 3.66 2.47 2.10 1.85 1.83 1.82 1.73 2.23 2.13 1.50 1.02 0.76 0.83 0.72 0.50 0.40 0.50 0.63 0.58 0.54 0.55 0.47 0.36 0.28 0.15 0.28
3.65 2.60 1.81 2.07 2.17 2.62 3.20 3.24 2.64 2.64 2.84 2.07 1.64 1.54 2.06 1.70 1.21 0.92 0.97 0.85 0.69 0.56 0.65 0.66 0.53 0.45 0.32 0.29 0.24 0.24 0.17 0.24
1.33 0.88 0.50 0.48 0.62 0.78 1.28 2.10 2.48 2.21 3.53 2.44 2.06 1.20 1.30 1.19 1.36 1.11 0.98 1.11 0.76 0.80 0.65 0.49 0.37 0.25 0.17 0.13 0.10 0.22 0.21 0.28
0.77 0.56 0.36 0.39 0.29 0.34 0.51 1.16 1.99 2.26 2.43 2.28 2.29 1.34 1.46 1.17 1.39 1.15 1.02 1.49 0.97 0.93 0.68 0.47 0.31 0.30 0.29 0.16 0.22 0.20 0.22 0.19
0.33 0.38 0.45 0.78 0.62 0.38 0.39 0.83 1.58 1.75 1.39 1.24 1.63 1.14 1.14 1.14 0.93 0.94 0.78 1.32 1.00 0.84 0.62 0.52 0.53 0.52 0.41 0.29 0.31 0.24 0.24 0.22
0.39 0.18 0.29 0.37 0.48 0.64 0.58 0.69 0.98 1.26 1.06 0.46 1.10 0.93 0.70 1.08 0.84 0.83 0.62 1.22 0.79 0.54 0.57 0.53 0.61 0.68 0.60 0.50 0.28 0.37 0.22 0.27
0.47 0.41 0.35 0.35 0.43 0.40 0.56 0.78 1.09 1.00 1.06 0.47 0.41 0.58 0.72 1.15 1.02 0.87 0.61 0.87 0.79 0.68 0.45 0.52 0.50 0.70 0.56 0.49 0.36 0.37 0.18 0.18
0.62 1.02 0.50 0.34 0.35 0.45 0.45 0.55 0.93 1.00 1.00 0.74 0.37 0.34 0.48 0.74 0.94 0.73 0.64 0.72 0.67 0.83 0.77 0.60 0.59 0.86 0.60 0.51 0.40 0.45 0.25 0.12
0.66 1.27 0.93 0.48 0.31 0.50 0.49 0.63 0.79 0.86 0.90 0.73 0.45 0.32 0.38 0.47 0.71 0.92 0.80 0.82 0.59 0.56 0.77 0.61 0.56 0.77 0.78 0.54 0.52 0.45 0.42 0.13
0.50 0.80 1.08 0.98 0.82 0.82 0.67 0.59 0.75 0.73 0.60 0.77 0.68 0.59 0.61 0.52 0.53 0.68 1.04 0.77 0.60 0.64 0.65 0.67 0.48 0.61 0.80 0.69 0.60 0.47 0.54 0.46
0.58 0.72 1.21 1.58 0.91 0.50 0.62 0.93 0.81 0.75 0.63 0.75 0.92 0.78 0.97 0.93 0.82 0.61 0.70 0.83 0.69 0.83 0.89 0.81 0.67 0.53 0.69 0.78 0.57 0.66 0.59 0.63
0.64 1.00 0.97 0.47 0.28 0.29 0.43 0.62 0.75 0.70 0.59 0.62 1.00 1.15 1.19 1.54 1.49 1.32 0.85 0.53 0.65 0.75 1.13 1.16 1.08 0.93 1.25 1.23 0.90 0.62 0.66 0.60
0.33 0.15 0.13 0.05 0.06 0.14 0.30 0.42 0.62 0.57 0.47 0.40 0.69 0.88 1.26 1.36 1.48 1.72 1.87 1.23 0.76 0.73 1.08 1.52 1.63 1.55 1.64 1.42 1.09 0.86 0.61 0.66
0.06 0.08 0.14 0.07 0.05 0.20 0.38 0.56 0.76 0.68 0.64 0.34 0.29 0.50 0.84 1.22 1.44 1.38 1.39 1.29 1.16 1.12 1.32 1.76 1.65 1.61 1.42 1.73 1.47 1.10 0.81 0.67
0.06 0.13 0.16 0.10 0.20 0.36 0.35 0.38 0.49 0.36 0.29 0.29 0.26 0.45 0.58 0.88 1.20 1.09 1.33 1.57 1.09 0.90 0.69 1.09 1.60 1.75 2.01 1.57 0.94 0.81 0.77 0.77
0.08 0.15 0.28 0.21 0.21 0.55 0.69 0.66 0.47 0.40 0.37 0.43 0.42 0.45 0.62 0.69 0.94 1.07 1.11 1.11 1.13 1.00 0.66 0.58 0.86 1.12 1.14 1.33 1.63 1.35 0.99 0.71
0.11 0.14 0.24 0.27 0.24 0.39 0.75 1.17 1.51 1.66 1.35 0.93 0.68 0.79 0.84 0.88 0.94 1.05 1.57 1.77 1.56 1.34 1.55 1.33 1.02 1.07 1.28 1.27 0.98 0.91 0.99 1.10
0.22 0.15 0.15 0.15 0.21 0.21 0.29 0.53 0.86 1.35 2.00 2.78 2.70 2.22 1.95 2.04 2.01 1.72 1.62 1.87 2.55 2.03 1.97 1.99 2.05 1.67 1.51 1.31 1.27 1.03 0.86 0.89
0.34 0.33 0.32 0.20 0.22 0.31 0.45 0.53 0.65 0.97 1.10 1.44 2.22 2.96 2.66 3.02 3.48 3.70 2.99 2.39 2.63 2.75 2.31 2.25 2.72 2.73 2.27 1.86 1.49 1.51 1.55 1.45

GFSFLT2_prec_precacc_186.txt.gz
Total_Precipitation_Accumulation
10.52 7.20 6.33 5.59 6.28 4.07 1.76 1.61 1.80 2.18 2.30 2.32 2.63 2.99 2.05 1.53 0.97 0.74 0.73 0.72 0.38 0.34 0.29 0.40 0.57 0.53 0.23 0.26 0.29 0.32 0.39 1.05
6.93 5.66 4.88 4.53 4.68 5.25 3.66 2.47 2.10 1.85 1.83 1.82 1.73 2.23 2.13 1.50 1.02 0.76 0.83 0.72 0.50 0.40 0.50 0.63 0.58 0.54 0.55 0.47 0.36 0.28 0.15 0.28
3.65 2.60 1.81 2.07 2.17 2.62 3.21 3.25 2.64 2.64 2.84 2.07 1.64 1.54 2.06 1.70 1.21 0.92 0.97 0.85 0.69 0.56 0.65 0.66 0.53 0.45 0.32 0.29 0.24 0.24 0.17 0.24
1.33 0.88 0.50 0.49 0.63 0.79 1.28 2.10 2.49 2.22 3.53 2.44 2.07 1.20 1.30 1.19 1.36 1.11 0.98 1.11 0.76 0.80 0.65 0.49 0.37 0.25 0.17 0.13 0.10 0.22 0.21 0.28
0.77 0.56 0.36 0.39 0.29 0.34 0.51 1.16 1.99 2.26 2.43 2.28 2.29 1.34 1.46 1.17 1.39 1.15 1.02 1.49 0.97 0.93 0.68 0.47 0.31 0.30 0.29 0.16 0.22 0.20 0.22 0.19
0.33 0.38 0.45 0.78 0.62 0.38 0.39 0.83 1.58 1.75 1.39 1.24 1.63 1.14 1.14 1.14 0.93 0.94 0.78 1.32 1.00 0.84 0.62 0.52 0.53 0.52 0.41 0.29 0.31 0.24 0.24 0.22
0.39 0.18 0.29 0.37 0.48 0.64 0.58 0.69 0.98 1.26 1.06 0.46 1.10 0.93 0.70 1.08 0.84 0.83 0.62 1.22 0.79 0.54 0.57 0.53 0.61 0.68 0.60 0.50 0.28 0.37 0.22 0.27
0.47 0.41 0.35 0.35 0.43 0.40 0.56 0.78 1.09 1.00 1.06 0.47 0.41 0.58 0.72 1.15 1.02 0.87 0.61 0.87 0.79 0.68 0.45 0.52 0.50 0.70 0.56 0.49 0.36 0.37 0.18 0.18
0.62 1.02 0.50 0.34 0.35 0.45 0.45 0.55 0.93 1.00 1.00 0.74 0.37 0.34 0.48 0.74 0.94 0.73 0.64 0.72 0.67 0.83 0.77 0.60 0.59 0.86 0.60 0.51 0.40 0.45 0.25 0.12
0.66 1.27 0.93 0.48 0.31 0.50 0.49 0.63 0.79 0.86 0.90 0.73 0.45 0.32 0.38 0.47 0.71 0.92 0.80 0.82 0.59 0.56 0.77 0.61 0.56 0.77 0.78 0.54 0.52 0.45 0.42 0.13
0.50 0.80 1.08 0.98 0.82 0.82 0.67 0.59 0.75 0.73 0.60 0.77 0.68 0.59 0.61 0.52 0.53 0.68 1.04 0.77 0.60 0.64 0.65 0.67 0.48 0.61 0.80 0.69 0.60 0.47 0.54 0.46
0.58 0.72 1.21 1.58 0.91 0.50 0.62 0.93 0.81 0.75 0.63 0.75 0.92 0.78 0.97 0.93 0.82 0.61 0.70 0.83 0.69 0.83 0.89 0.81 0.67 0.53 0.69 0.78 0.57 0.66 0.59 0.63
0.64 1.00 0.97 0.47 0.28 0.29 0.43 0.62 0.75 0.70 0.59 0.62 1.00 1.15 1.19 1.54 1.49 1.32 0.85 0.53 0.65 0.75 1.13 1.16 1.08 0.93 1.25 1.23 0.90 0.62 0.66 0.60
0.33 0.15 0.13 0.05 0.06 0.14 0.30 0.42 0.62 0.57 0.47 0.40 0.69 0.88 1.26 1.36 1.48 1.72 1.87 1.23 0.76 0.73 1.08 1.52 1.63 1.55 1.64 1.42 1.09 0.86 0.61 0.66
0.06 0.08 0.14 0.07 0.05 0.20 0.38 0.56 0.76 0.68 0.64 0.34 0.29 0.50 0.84 1.22 1.44 1.38 1.39 1.29 1.16 1.12 1.32 1.76 1.65 1.61 1.42 1.73 1.47 1.10 0.81 0.67
0.06 0.13 0.16 0.10 0.20 0.36 0.35 0.38 0.49 0.36 0.29 0.29 0.26 0.45 0.58 0.88 1.20 1.09 1.33 1.57 1.09 0.90 0.69 1.09 1.60 1.75 2.01 1.57 0.94 0.81 0.77 0.77
0.08 0.15 0.28 0.21 0.21 0.55 0.69 0.66 0.47 0.40 0.37 0.43 0.42 0.45 0.62 0.69 0.94 1.07 1.11 1.11 1.13 1.00 0.66 0.58 0.86 1.12 1.14 1.33 1.63 1.35 0.99 0.71
0.11 0.14 0.24 0.27 0.24 0.39 0.75 1.17 1.51 1.66 1.35 0.93 0.68 0.79 0.84 0.88 0.94 1.05 1.57 1.77 1.56 1.34 1.55 1.33 1.02 1.07 1.28 1.27 0.98 0.91 0.99 1.10
0.22 0.15 0.15 0.15 0.21 0.21 0.29 0.53 0.86 1.35 2.00 2.78 2.70 2.22 1.95 2.04 2.01 1.72 1.62 1.87 2.55 2.03 1.97 1.99 2.05 1.67 1.51 1.31 1.27 1.03 0.86 0.89
0.34 0.33 0.32 0.20 0.22 0.31 0.45 0.53 0.65 0.97 1.10 1.44 2.22 2.96 2.66 3.02 3.48 3.70 2.99 2.39 2.63 2.75 2.31 2.25 2.72 2.73 2.27 1.86 1.49 1.51 1.55 1.45

GFSFLT2_prec_precacc_189.txt.gz
Total_Precipitation_Accumulation
10.52 7.22 6.35 5.60 6.28 4.07 1.76 1.61 1.80 2.18 2.30 2.32 2.63 2.99 2.05 1.53 0.97 0.74 0.73 0.72 0.38 0.34 0.29 0.40 0.57 0.53 0.23 0.26 0.29 0.32 0.39 1.05
6.93 5.66 4.88 4.53 4.68 5.25 3.66 2.47 2.10 1.85 1.83 1.82 1.73 2.23 2.13 1.50 1.02 0.76 0.83 0.72 0.50 0.40 0.50 0.63 0.58 0.54 0.55 0.47 0.36 0.28 0.15 0.28
3.65 2.60 1.81 2.07 2.17 2.62 3.21 3.25 2.64 2.64 2.84 2.07 1.64 1.54 2.06 1.70 1.21 0.92 0.97 0.85 0.69 0.56 0.65 0.66 0.53 0.45 0.32 0.29 0.24 0.24 0.17 0.24
1.33 0.88 0.50 0.49 0.63 0.79 1.28 2.10 2.49 2.22 3.53 2.44 2.07 1.20 1.32 1.20 1.36 1.11 0.98 1.11 0.76 0.80 0.65 0.49 0.37 0.25 0.17 0.13 0.10 0.22 0.21 0.28
0.77 0.56 0.36 0.39 0.29 0.34 0.51 1.16 1.99 2.26 2.45 2.30 2.31 1.36 1.48 1.17 1.39 1.15 1.02 1.49 0.97 0.93 0.68 0.47 0.31 0.30 0.29 0.16 0.22 0.20 0.22 0.19
0.33 0.38 0.45 0.78 0.62 0.38 0.39 0.83 1.61 1.77 1.42 1.28 1.65 1.15 1.15 1.14 0.93 0.94 0.78 1.32 1.00 0.84 0.62 0.52 0.53 0.52 0.41 0.29 0.31 0.24 0.24 0.22
0.39 0.18 0.29 0.37 0.48 0.64 0.58 0.69 0.99 1.27 1.08 0.48 1.10 0.93 0.70 1.08 0.84 0.83 0.62 1.22 0.79 0.54 0.57 0.53 0.61 0.68 0.60 0.50 0.28 0.37 0.22 0.27
0.47 0.41 0.35 0.35 0.43 0.40 0.56 0.78 1.10 1.01 1.07 0.47 0.41 0.58 0.72 1.15 1.02 0.87 0.61 0.87 0.79 0.68 0.45 0.52 0.50 0.70 0.56 0.49 0.36 0.37 0.18 0.18
0.62 1.02 0.50 0.34 0.35 0.45 0.45 0.55 0.93 1.00 1.00 0.74 0.37 0.34 0.48 0.74 0.94 0.73 0.64 0.72 0.67 0.83 0.77 0.60 0.59 0.86 0.60 0.51 0.40 0.45 0.25 0.12
0.66 1.27 0.93 0.48 0.31 0.50 0.49 0.63 0.79 0.86 0.90 0.73 0.45 0.32 0.38 0.47 0.71 0.92 0.80 0.82 0.59 0.56 0.77 0.61 0.56 0.77 0.78 0.54 0.52 0.45 0.42 0.13
0.50 0.80 1.08 0.98 0.82 0.82 0.67 0.59 0.75 0.73 0.60 0.77 0.68 0.59 0.61 0.52 0.53 0.68 1.04 0.77 0.60 0.64 0.65 0.67 0.48 0.61 0.80 0.69 0.60 0.47 0.54 0.46
0.58 0.72 1.21 1.58 0.91 0.50 0.62 0.93 0.81 0.75 0.63 0.75 0.92 0.78 0.97 0.93 0.82 0.61 0.70 0.83 0.69 0.83 0.89 0.81 0.67 0.53 0.69 0.78 0.57 0.66 0.59 0.63
0.65 1.00 0.97 0.47 0.28 0.29 0.43 0.62 0.75 0.70 0.59 0.62 1.00 1.15 1.19 1.54 1.49 1.32 0.85 0.53 0.65 0.75 1.13 1.16 1.08 0.93 1.25 1.23 0.90 0.62 0.66 0.60
0.33 0.15 0.13 0.05 0.06 0.14 0.30 0.42 0.62 0.57 0.47 0.40 0.69 0.88 1.26 1.36 1.48 1.72 1.87 1.23 0.76 0.73 1.08 1.52 1.63 1.55 1.64 1.42 1.09 0.86 0.61 0.66
0.07 0.08 0.14 0.07 0.05 0.20 0.38 0.56 0.76 0.68 0.64 0.34 0.29 0.50 0.84 1.22 1.44 1.38 1.39 1.29 1.16 1.12 1.32 1.76 1.65 1.61 1.42 1.73 1.47 1.10 0.81 0.67
0.07 0.13 0.16 0.10 0.20 0.36 0.35 0.38 0.49 0.36 0.29 0.29 0.26 0.45 0.58 0.88 1.20 1.09 1.33 1.57 1.09 0.90 0.69 1.09 1.60 1.75 2.01 1.57 0.94 0.81 0.77 0.77
0.10 0.15 0.28 0.21 0.21 0.55 0.69 0.66 0.47 0.40 0.37 0.43 0.42 0.45 0.62 0.69 0.94 1.07 1.11 1.11 1.13 1.00 0.66 0.58 0.86 1.12 1.14 1.33 1.63 1.35 0.99 0.71
0.13 0.14 0.24 0.27 0.24 0.39 0.75 1.17 1.51 1.66 1.35 0.93 0.68 0.79 0.84 0.88 0.94 1.05 1.57 1.77 1.56 1.34 1.55 1.33 1.02 1.07 1.28 1.27 0.98 0.91 0.99 1.10
0.24 0.15 0.15 0.15 0.21 0.21 0.29 0.53 0.86 1.35 2.00 2.78 2.70 2.22 1.95 2.04 2.01 1.72 1.62 1.87 2.55 2.03 1.97 1.99 2.05 1.67 1.51 1.31 1.27 1.03 0.86 0.89
0.37 0.34 0.32 0.20 0.22 0.31 0.45 0.53 0.65 0.97 1.10 1.44 2.22 2.96 2.66 3.02 3.48 3.70 2.99 2.39 2.63 2.75 2.31 2.25 2.72 2.73 2.27 1.86 1.49 1.51 1.55 1.45

GFSFLT2_prec_precacc_192.txt.gz
Total_Precipitation_Accumulation
10.55 7.24 6.38 5.63 6.29 4.07 1.77 1.62 1.81 2.18 2.30 2.33 2.63 2.99 2.05 1.53 0.97 0.74 0.73 0.72 0.38 0.34 0.29 0.40 0.57 0.53 0.23 0.26 0.29 0.32 0.39 1.05
6.94 5.67 4.90 4.56 4.69 5.25 3.66 2.47 2.10 1.85 1.83 1.82 1.73 2.23 2.13 1.50 1.02 0.76 0.83 0.72 0.50 0.40 0.50 0.63 0.58 0.54 0.55 0.47 0.36 0.28 0.15 0.28
3.65 2.60 1.82 2.08 2.17 2.62 3.21 3.25 2.64 2.64 2.84 2.07 1.64 1.54 2.06 1.71 1.22 0.93 0.97 0.85 0.69 0.56 0.65 0.66 0.53 0.45 0.32 0.29 0.24 0.24 0.17 0.24
1.34 0.88 0.50 0.49 0.63 0.79 1.28 2.10 2.49 2.22 3.53 2.44 2.07 1.20 1.33 1.23 1.39 1.13 0.98 1.11 0.76 0.80 0.65 0.49 0.37 0.25 0.17 0.13 0.10 0.22 0.21 0.28
0.77 0.56 0.36 0.39 0.29 0.34 0.51 1.16 1.99 2.26 2.45 2.31 2.33 1.37 1.51 1.22 1.42 1.16 1.02 1.49 0.97 0.93 0.68 0.47 0.31 0.30 0.29 0.16 0.22 0.20 0.22 0.19
0.33 0.38 0.45 0.78 0.62 0.38 0.39 0.83 1.61 1.77 1.42 1.29 1.71 1.20 1.20 1.18 0.95 0.95 0.78 1.32 1.00 0.84 0.62 0.52 0.53 0.52 0.41 0.29 0.31 0.24 0.24 0.22
0.39 0.18 0.29 0.37 0.48 0.64 0.59 0.70 0.99 1.27 1.09 0.50 1.13 0.97 0.73 1.09 0.85 0.83 0.62 1.22 0.79 0.54 0.57 0.53 0.61 0.68 0.60 0.50 0.28 0.37 0.22 0.27
0.47 0.41 0.35 0.35 0.43 0.40 0.56 0.78 1.10 1.01 1.08 0.49 0.42 0.59 0.73 1.15 1.02 0.87 0.61 0.87 0.79 0.68 0.45 0.52 0.50 0.70 0.56 0.49 0.36 0.37 0.18 0.18
0.62 1.02 0.50 0.34 0.35 0.45 0.45 0.55 0.93 1.00 1.00 0.74 0.37 0.34 0.48 0.74 0.94 0.73 0.64 0.72 0.67 0.83 0.77 0.60 0.59 0.86 0.60 0.51 0.40 0.45 0.25 0.12
0.66 1.27 0.93 0.48 0.31 0.50 0.49 0.63 0.79 0.86 0.90 0.73 0.45 0.32 0.38 0.47 0.71 0.92 0.80 0.82 0.59 0.56 0.77 0.61 0.56 0.77 0.78 0.54 0.52 0.45 0.42 0.13
0.50 0.80 1.08 0.98 0.82 0.82 0.67 0.59 0.75 0.73 0.60 0.77 0.68 0.59 0.61 0.52 0.53 0.68 1.04 0.77 0.60 0.64 0.65 0.67 0.48 0.61 0.80 0.69 0.60 0.47 0.54 0.46
0.58 0.72 1.21 1.58 0.91 0.50 0.62 0.93 0.81 0.75 0.63 0.75 0.92 0.78 0.97 0.93 0.82 0.61 0.70 0.83 0.69 0.83 0.89 0.81 0.67 0.53 0.69 0.78 0.57 0.66 0.59 0.63
0.65 1.01 0.97 0.47 0.28 0.29 0.43 0.62 0.75 0.70 0.59 0.62 1.00 1.16 1.19 1.54 1.49 1.32 0.85 0.53 0.65 0.75 1.13 1.16 1.08 0.93 1.25 1.23 0.90 0.62 0.66 0.60
0.33 0.16 0.13 0.06 0.07 0.15 0.30 0.42 0.62 0.57 0.47 0.40 0.69 0.88 1.26 1.36 1.48 1.72 1.87 1.23 0.76 0.73 1.08 1.52 1.63 1.55 1.64 1.42 1.09 0.86 0.61 0.66
0.07 0.09 0.15 0.08 0.05 0.21 0.39 0.56 0.76 0.68 0.64 0.34 0.29 0.50 0.84 1.22 1.44 1.38 1.39 1.29 1.16 1.12 1.32 1.76 1.65 1.61 1.42 1.73 1.47 1.10 0.81 0.67
0.08 0.14 0.17 0.10 0.20 0.36 0.36 0.38 0.49 0.36 0.29 0.29 0.26 0.45 0.58 0.88 1.20 1.09 1.33 1.57 1.09 0.90 0.69 1.09 1.60 1.75 2.01 1.57 0.94 0.81 0.77 0.77
0.11 0.17 0.29 0.22 0.21 0.55 0.69 0.66 0.47 0.40 0.37 0.43 0.42 0.45 0.62 0.69 0.94 1.07 1.11 1.11 1.13 1.00 0.66 0.58 0.86 1.12 1.14 1.33 1.63 1.35 0.99 0.71
0.16 0.17 0.26 0.29 0.25 0.39 0.75 1.17 1.51 1.66 1.35 0.93 0.68 0.79 0.84 0.88 0.94 1.05 1.57 1.77 1.56 1.34 1.55 1.33 1.02 1.07 1.28 1.27 0.98 0.91 0.99 1.10
0.27 0.19 0.18 0.17 0.21 0.21 0.29 0.53 0.86 1.35 2.00 2.78 2.70 2.22 1.95 2.04 2.01 1.72 1.62 1.87 2.55 2.03 1.97 1.99 2.05 1.67 1.51 1.31 1.27 1.03 0.86 0.89
0.39 0.37 0.35 0.21 0.23 0.31 0.45 0.53 0.65 0.97 1.10 1.44 2.22 2.96 2.66 3.02 3.48 3.70 2.99 2.39 2.63 2.75 2.31 2.25 2.72 2.73 2.27 1.86 1.49 1.51 1.55 1.45

GFSFLT2_prec_precacc_198.txt.gz
Total_Precipitation_Accumulation
10.56 7.26 6.41 5.66 6.31 4.10 1.78 1.63 1.82 2.19 2.31 2.33 2.63 2.99 2.05 1.53 0.97 0.74 0.73 0.72 0.38 0.34 0.29 0.40 0.57 0.53 0.23 0.26 0.29 0.32 0.39 1.05
6.95 5.69 4.94 4.64 4.77 5.29 3.68 2.49 2.11 1.86 1.83 1.82 1.73 2.23 2.13 1.50 1.02 0.76 0.83 0.72 0.50 0.40 0.50 0.63 0.58 0.54 0.55 0.47 0.36 0.28 0.15 0.28
3.67 2.63 1.85 2.14 2.22 2.67 3.27 3.27 2.66 2.65 2.84 2.07 1.64 1.55 2.07 1.71 1.22 0.93 0.97 0.85 0.69 0.56 0.65 0.66 0.53 0.45 0.32 0.29 0.24 0.24 0.17 0.24
1.35 0.89 0.51 0.50 0.65 0.81 1.31 2.11 2.49 2.22 3.53 2.44 2.07 1.21 1.34 1.24 1.40 1.13 0.99 1.11 0.76 0.81 0.65 0.49 0.37 0.25 0.17 0.13 0.10 0.22 0.21 0.28
0.78 0.56 0.37 0.39 0.30 0.36 0.54 1.17 1.99 2.26 2.45 2.31 2.33 1.37 1.52 1.24 1.43 1.17 1.03 1.49 0.97 0.93 0.68 0.47 0.31 0.30 0.29 0.16 0.22 0.20 0.22 0.19
0.33 0.38 0.45 0.78 0.63 0.39 0.41 0.84 1.61 1.77 1.42 1.29 1.71 1.22 1.27 1.26 1.00 0.98 0.80 1.32 1.00 0.84 0.62 0.52 0.53 0.52 0.41 0.29 0.31 0.24 0.24 0.22
0.39 0.18 0.29 0.37 0.48 0.64 0.59 0.71 1.00 1.27 1.09 0.51 1.14 0.99 0.84 1.24 0.95 0.89 0.64 1.23 0.79 0.54 0.57 0.53 0.61 0.68 0.60 0.50 0.28 0.37 0.22 0.27
0.47 0.42 0.35 0.35 0.43 0.41 0.57 0.78 1.10 1.01 1.09 0.49 0.44 0.63 0.78 1.23 1.09 0.93 0.64 0.88 0.79 0.68 0.45 0.52 0.50 0.70 0.56 0.49 0.36 0.37 0.18 0.18
0.62 1.03 0.50 0.34 0.35 0.45 0.45 0.56 0.93 1.00 1.00 0.75 0.37 0.34 0.48 0.74 0.94 0.73 0.65 0.72 0.67 0.83 0.77 0.60 0.59 0.86 0.60 0.51 0.40 0.45 0.25 0.12
0.67 1.28 0.93 0.48 0.31 0.50 0.50 0.63 0.80 0.87 0.90 0.73 0.46 0.32 0.38 0.47 0.71 0.92 0.80 0.82 0.59 0.56 0.77 0.61 0.56 0.77 0.78 0.54 0.52 0.45 0.42 0.13
0.50 0.81 1.08 0.98 0.82 0.82 0.67 0.59 0.76 0.73 0.61 0.77 0.68 0.59 0.62 0.52 0.53 0.68 1.04 0.77 0.60 0.64 0.65 0.67 0.48 0.61 0.80 0.69 0.60 0.47 0.54 0.46
0.58 0.72 1.21 1.59 0.91 0.50 0.62 0.93 0.81 0.75 0.63 0.75 0.92 0.78 0.97 0.93 0.82 0.61 0.70 0.83 0.69 0.83 0.89 0.81 0.67 0.53 0.69 0.78 0.57 0.66 0.59 0.63
0.65 1.01 0.98 0.48 0.30 0.30 0.43 0.62 0.75 0.70 0.60 0.62 1.00 1.16 1.19 1.54 1.49 1.32 0.85 0.53 0.65 0.75 1.13 1.16 1.08 0.93 1.25 1.23 0.90 0.62 0.66 0.60
0.33 0.16 0.15 0.08 0.12 0.20 0.33 0.43 0.62 0.57 0.48 0.41 0.69 0.88 1.26 1.36 1.48 1.72 1.87 1.23 0.76 0.73 1.08 1.52 1.63 1.55 1.64 1.42 1.09 0.86 0.61 0.66
0.07 0.09 0.17 0.14 0.13 0.26 0.43 0.57 0.77 0.68 0.64 0.34 0.29 0.50 0.84 1.22 1.44 1.38 1.39 1.29 1.16 1.12 1.32 1.76 1.65 1.61 1.42 1.73 1.47 1.10 0.81 0.67
0.08 0.14 0.18 0.14 0.24 0.40 0.40 0.41 0.51 0.38 0.30 0.29 0.26 0.45 0.58 0.88 1.20 1.09 1.33 1.57 1.09 0.90 0.69 1.09 1.60 1.75 2.01 1.57 0.94 0.81 0.77 0.77
0.11 0.17 0.30 0.23 0.27 0.61 0.74 0.70 0.49 0.41 0.38 0.44 0.42 0.45 0.62 0.69 0.94 1.07 1.11 1.11 1.13 1.00 0.66 0.58 0.86 1.12 1.14 1.33 1.63 1.35 0.99 0.71
0.16 0.18 0.27 0.32 0.32 0.48 0.84 1.25 1.56 1.68 1.36 0.94 0.69 0.79 0.84 0.88 0.94 1.05 1.57 1.77 1.56 1.34 1.55 1.33 1.02 1.07 1.28 1.27 0.98 0.91 0.99 1.10
0.27 0.19 0.19 0.21 0.28 0.28 0.37 0.62 0.94 1.40 2.03 2.79 2.70 2.22 1.95 2.04 2.01 1.72 1.62 1.87 2.55 2.03 1.97 1.99 2.05 1.67 1.51 1.31 1.27 1.03 0.86 0.89
0.39 0.37 0.36 0.23 0.24 0.33 0.48 0.56 0.69 1.00 1.13 1.45 2.22 2.96 2.66 3.02 3.48 3.70 2.99 2.39 2.63 2.75 2.31 2.25 2.72 2.73 2.27 1.86 1.49 1.51 1.55 1.45

GFSFLT2_prec_precacc_201.txt.gz
Total_Precipitation_Accumulation
10.57 7.26 6.41 5.66 6.33 4.11 1.78 1.64 1.82 2.19 2.31 2.33 2.63 2.99 2.05 1.53 0.97 0.74 0.73 0.72 0.38 0.34 0.29 0.40 0.57 0.53 0.23 0.26 0.29 0.32 0.39 1.05
6.96 5.69 4.95 4.65 4.82 5.35 3.72 2.49 2.12 1.87 1.84 1.82 1.73 2.23 2.13 1.50 1.02 0.76 0.83 0.72 0.50 0.40 0.50 0.63 0.58 0.54 0.55 0.47 0.36 0.28 0.15 0.28
3.68 2.64 1.86 2.17 2.31 2.71 3.34 3.29 2.66 2.65 2.84 2.07 1.64 1.55 2.07 1.72 1.22 0.93 0.98 0.85 0.69 0.56 0.65 0.66 0.53 0.45 0.32 0.29 0.24 0.24 0.17 0.24
1.36 0.91 0.53 0.55 0.69 0.82 1.34 2.14 2.51 2.22 3.53 2.44 2.07 1.21 1.34 1.24 1.42 1.16 1.01 1.12 0.76 0.81 0.65 0.49 0.37 0.25 0.17 0.13 0.10 0.22 0.21 0.28
0.79 0.58 0.39 0.43 0.31 0.37 0.55 1.18 1.99 2.26 2.45 2.31 2.33 1.37 1.52 1.25 1.45 1.18 1.03 1.50 0.97 0.93 0.68 0.47 0.31 0.30 0.29 0.16 0.22 0.20 0.22 0.19
0.34 0.40 0.47 0.80 0.64 0.39 0.41 0.84 1.63 1.79 1.42 1.29 1.71 1.22 1.29 1.30 1.03 0.99 0.81 1.32 1.00 0.84 0.62 0.52 0.53 0.52 0.41 0.29 0.31 0.24 0.24 0.22
0.39 0.19 0.30 0.37 0.48 0.64 0.59 0.71 1.01 1.29 1.10 0.51 1.14 0.99 0.85 1.26 1.00 0.93 0.67 1.24 0.80 0.54 0.57 0.53 0.61 0.68 0.60 0.50 0.28 0.37 0.22 0.27
0.47 0.42 0.35 0.36 0.43 0.41 0.57 0.79 1.11 1.02 1.10 0.49 0.44 0.63 0.78 1.25 1.15 0.98 0.69 0.91 0.80 0.68 0.45 0.52 0.50 0.70 0.56 0.49 0.36 0.37 0.18 0.18
0.62 1.03 0.50 0.34 0.35 0.45 0.45 0.56 0.94 1.01 1.01 0.76 0.38 0.35 0.49 0.75 0.95 0.75 0.66 0.74 0.69 0.84 0.77 0.60 0.59 0.86 0.60 0.51 0.40 0.45 0.25 0.12
0.67 1.28 0.94 0.49 0.31 0.50 0.50 0.63 0.80 0.88 0.91 0.74 0.46 0.33 0.39 0.48 0.72 0.93 0.80 0.82 0.59 0.56 0.77 0.61 0.56 0.77 0.78 0.54 0.52 0.45 0.42 0.13
0.50 0.81 1.08 0.99 0.83 0.82 0.67 0.59 0.76 0.73 0.61 0.78 0.69 0.59 0.62 0.52 0.53 0.68 1.04 0.77 0.60 0.64 0.65 0.67 0.48 0.61 0.80 0.69 0.60 0.47 0.54 0.46
0.59 0.72 1.21 1.59 0.92 0.51 0.62 0.94 0.81 0.75 0.63 0.75 0.92 0.79 0.98 0.93 0.82 0.61 0.70 0.83 0.69 0.83 0.89 0.81 0.67 0.53 0.69 0.78 0.57 0.66 0.59 0.63
0.65 1.01 0.98 0.48 0.31 0.32 0.44 0.62 0.75 0.70 0.60 0.62 1.00 1.16 1.19 1.54 1.49 1.32 0.85 0.53 0.65 0.75 1.13 1.16 1.08 0.93 1.25 1.23 0.90 0.62 0.66 0.60
0.33 0.16 0.15 0.08 0.13 0.26 0.38 0.46 0.63 0.57 0.48 0.41 0.69 0.89 1.26 1.36 1.48 1.72 1.87 1.23 0.76 0.73 1.08 1.52 1.63 1.55 1.64 1.42 1.09 0.86 0.61 0.66
0.07 0.09 0.17 0.14 0.14 0.30 0.47 0.59 0.77 0.69 0.64 0.34 0.29 0.50 0.84 1.22 1.44 1.38 1.39 1.29 1.16 1.12 1.32 1.76 1.65 1.61 1.42 1.73 1.47 1.10 0.81 0.67
0.08 0.14 0.18 0.14 0.24 0.40 0.42 0.44 0.53 0.40 0.31 0.29 0.26 0.45 0.58 0.88 1.20 1.09 1.33 1.57 1.09 0.90 0.69 1.09 1.60 1.75 2.01 1.57 0.94 0.81 0.77 0.77
0.11 0.17 0.30 0.23 0.27 0.61 0.74 0.72 0.52 0.44 0.39 0.44 0.42 0.45 0.62 0.69 0.94 1.07 1.11 1.11 1.13 1.00 0.66 0.58 0.86 1.12 1.14 1.33 1.63 1.35 0.99 0.71
0.16 0.18 0.27 0.32 0.32 0.48 0.84 1.26 1.58 1.71 1.38 0.95 0.70 0.79 0.84 0.88 0.94 1.05 1.57 1.77 1.56 1.34 1.55 1.33 1.02 1.07 1.28 1.27 0.98 0.91 0.99 1.10
0.27 0.19 0.19 0.21 0.28 0.28 0.37 0.62 0.95 1.43 2.09 2.84 2.73 2.23 1.96 2.04 2.01 1.72 1.62 1.87 2.55 2.03 1.97 1.99 2.05 1.67 1.51 1.31 1.27 1.03 0.86 0.89
0.39 0.37 0.36 0.23 0.24 0.34 0.48 0.58 0.72 1.05 1.18 1.51 2.27 2.99 2.67 3.02 3.48 3.70 2.99 2.39 2.63 2.75 2.31 2.25 2.72 2.73 2.27 1.86 1.49 1.51 1.55 1.45